Location: Cornospital
(48.0620°N, 3.3837°W)
Time: 20:37:21
(UTC+00:00)

SPOT 5 - Pass Details

Date: 17 June 2021
Orbit: 622 x 815 km, 98.2° (Epoch: 03 August)

Event Time Altitude Azimuth Distance (km) Brightness Sun altitude
Exits shadow 21:41:32 13° 162° (SSE) 2,137 4.7 -10.7°
Maximum altitude 21:46:12 85° 74° (ENE) 766 3.0 -11.2°
Drops below altitude 10° 21:51:08 10° 347° (NNW) 2,233 6.6 -11.6°
Sets 21:53:22 0° 347° (NNW) 3,128 7.7 -11.8°
